AEROCUBE 18A

导读

AEROCUBE 18A(航天立方18A)是由美国航空航天公司(Aerospace Corp)研发的6U立方体卫星,于北京时间2025年3月15日,搭乘SpaceX猎鹰9号v1.2(Block 5)火箭,从范登堡太空军基地SLC-4E发射工位,随Transporter-13拼车任务成功入轨,同批次还发射了姊妹星AEROCUBE 18B。作为航天立方系列卫星的最新成员,它延续了该系列低成本小卫星技术探索方向。

基本信息
目录编号:
63220
目录名称:
AEROCUBE 18A
国际标识:
2025-052L
轨道中心:
EARTH
卫星名称:
AEROCUBE 18A
卫星全名:
AEROCUBE 18A
卫星状态:
在轨 (已飞行539 天)
发射日期:
2025-03-15 UTC
国别 :
美国 (US)
星等 :
--
轨道信息
数据来源 国际轨道数据
星历时间: 2026-09-05T11:39:30+0800
8小时前
查看轨道信息
半长轴: 6868.189km
偏心率: 0.0003625
轨道倾角: 97.384°
近地点辐角 175.047°
升交点赤经 140.594°
平近点角 185.081°
近地点: 487.562km
远地点: 492.542km
周期: 94.411分钟
每日圈数: 15.252444
详细信息
使用方式:
暂无
2D轨道图
3D轨道图
轨道高度分析图
轨道倾角分析图
轨道综合分析图
查看轨道综合分析图
交会数据列表
事件ID 空间交会对象 最接近时刻(TCA) 交会距离 交会风险概率(CRP) 交会风险指数(CRI) 操作
CDM_260905-104206-322006-729023
2026-09-05T
10:42:53+0000
2.817 km
极远距离
1.469911E-6 低风险 0.38
CDM_260907-185603-787506-322021
2026-09-07T
18:56:37+0000
2.786 km
极远距离
1.44599E-6 低风险 0.38
CDM_260905-164104-102606-322024
2026-09-05T
16:41:52+0000
2.696 km
极远距离
1.422712E-6 低风险 0.38